Location: Bessat
(45.8735°N, 1.9924°E)
Time: 08:32:45
(UTC+00:00)

Meteor 1-27 Rocket - Pass Details

Date: 11 May 2021
Orbit: 829 x 910 km, 81.3° (Epoch: 20 June)

Event Time Altitude Azimuth Distance (km) Brightness Sun altitude
Exits shadow 21:58:48 35° 190° (S) 1,411 4.4 -21.4°
Maximum altitude 22:01:27 90° 276° (W) 904 3.8 -21.6°
Drops below altitude 10° 22:07:24 10° 11° (N) 2,599 7.0 -22.0°
Sets 22:09:54 0° 11° (NNE) 3,550 7.8 -22.2°
